Miscellaneous Local Product
Issued by NWS Hastings, NE

Home | Current Version | Previous Version | Text Only | Print | Product List | Glossary Off
Versions: 1 2 3 4 5 6 7 8 9 10 11 12 13 14 15 16 17 18 19 20 21 22 23 24 25 26 27 28 29 30 31 32 33 34 35 36 37 38 39 40 41 42 43 44 45 46 47 48 49 50

000
AXUS43 KGID 181402
MISGRI

GID CWA HOURLY WEATHER ROUNDUP
NATIONAL WEATHER SERVICE HASTINGS NE
900 AM CDT SAT APR 18 2015

NOTE: "FAIR" INDICATES FEW OR NO CLOUDS BELOW 12,000 FEET WITH NO
SIGNIFICANT WEATHER AND/OR OBSTRUCTIONS TO VISIBILITY.

...SOUTH CENTRAL NEBRASKA...

CITY           SKY/WX    TMP DP  RH WIND       PRES   REMARKS
GRAND ISLAND   CLOUDY    56  54  93 CALM      29.90R
HASTINGS       CLOUDY    55  54  96 NW8       29.88F
KEARNEY        CLOUDY    54  52  94 W3        29.90F
ORD            CLOUDY    54  51  90 NE6       29.89F
YORK           LGT RAIN  57  57 100 E5        29.91F
AURORA         CLOUDY    56  56 100 SE9       29.89F FOG
LEXINGTON      MOSUNNY   51  49  95 CALM      29.90F
HOLDREGE       CLOUDY    54  52  94 NE3       29.91F
HEBRON         CLOUDY    58  56  92 CALM      29.89F FOG

...NEBRASKA PANHANDLE...

CITY           SKY/WX    TMP DP  RH WIND       PRES   REMARKS
CHADRON        LGT RAIN  47  45  93 NE14      29.93F FOG
ALLIANCE       CLOUDY    47  44  90 E5        29.91S
SCOTTSBLUFF    CLOUDY    44  32  62 W7        29.93S
SIDNEY         CLOUDY    41  39  93 NW9       29.93S

...WESTERN AND NORTH CENTRAL NEBRASKA...

CITY           SKY/WX    TMP DP  RH WIND       PRES   REMARKS
VALENTINE      CLOUDY    50  48  93 E6        29.93S
AINSWORTH      CLOUDY    51  49  96 CALM      29.92R
ONEILL         RAIN      53  52  97 N7        29.93F
BROKEN BOW     CLOUDY    54  51  90 N7        29.90F
IMPERIAL       FOG       46  45  96 CALM      29.92F VSB 1/2
NORTH PLATTE   CLOUDY    50  50 100 E6        29.91F
MCCOOK         SUNNY     51  46  83 CALM      29.91F

...EASTERN NEBRASKA...

CITY           SKY/WX    TMP DP  RH WIND       PRES   REMARKS
NORFOLK        NOT AVBL
SO SIOUX CITY  CLOUDY    60  46  59 E8        29.94F
TEKAMAH        CLOUDY    65  56  72 E8        29.91F
COLUMBUS       CLOUDY    57  52  82 CALM      29.95R
ALBION         LGT RAIN  56  54  93 E10       29.92F
OMAHA EPPLEY   CLOUDY    63  56  78 E10       29.91F
OFFUTT AFB     CLOUDY    64  56  75 E6        29.90S
MILLARD        CLOUDY    64  56  74 SE3       29.91S
LINCOLN        TSTM      59  57  93 CALM      29.94R FOG
NEBRASKA CITY  CLOUDY    61  55  79 SE3       29.92R
BEATRICE       CLOUDY    59  58  98 CALM      29.92S FOG
FALLS CITY     CLOUDY    61  56  83 S3        29.90S

...NORTHERN KANSAS...

CITY           SKY/WX    TMP DP  RH WIND       PRES   REMARKS
GOODLAND       CLOUDY    45  45 100 E8        29.92R FOG
HILL CITY      CLOUDY    51  48  89 CALM      29.93S
NORTON         FOG       48  46  93 CALM      29.92R VSB 3/4
PHILLIPSBURG   SUNNY     54  54 100 CALM      29.91F
SMITH CENTER   MOSUNNY   55  54  94 W6        29.90F
BELOIT         SUNNY     55  55 100 SE3       29.89R
HAYS           CLOUDY    54  45  71 S3        29.91S
RUSSELL        CLOUDY    57  54  89 CALM      29.89S
CONCORDIA      CLOUDY    58  58 100 SE5       29.89F FOG
SALINA         CLOUDY    61  57  87 E7        29.90F
TOPEKA         TSTM      60  57  89 SW9       29.92S VSB 3/4



USA.gov is the U.S. government's official web portal to all federal, state and local government web resources and services.